ORBCOMM FM20

Last updated on Wed Sep 23 2026 00:03:43 GMT+0000 (Coordinated Universal Time)

1 25416U 98046D 26264.78131173 .00000349 00000+0 16044-3 0 9999 2 25416 44.9931 153.3572 0001644 30.8371 329.2574 14.38177866470692
UTC large
Height (km)
Speed (km/s)
/
Latitude / Longitude
Inclination (degrees)
Orbital Period (minutes)
Azimuth
Elevation
Range (km)
Doppler Factor

Next 0 passes for location: London (51.5072 / 0.1276)

No passes found over London.
ORBCOMM FM20